Regional Weather Roundup
Issued by NWS

Home | Current Version | Previous Version | Graphics & Text | Print | Product List | Glossary On
Versions: 1 2 3 4 5 6 7 8 9 10 11 12 13 14 15 16 17 18 19 20 21 22 23 24 25 26 27 28 29 30 31 32 33 34 35 36 37 38 39 40 41 42 43 44 45 46 47 48 49 50
658
ASUS45 KABQ 192101
RWRNM
NEW MEXICO REGIONAL WEATHER ROUNDUP
NATIONAL WEATHER SERVICE ALBUQUERQUE NM
300 PM MDT THU APR 19 2018

NOTE: "FAIR" MEANS FEW OR NO CLOUDS BELOW 12,000 FEET AGL WITH NO
       SIGNIFICANT WEATHER OR OBSTRUCTIONS TO VISION.

      THIS PRODUCT IS RELEASED AS TWO VERSIONS.  ONE VERSION NEAR
      THE TOP OF THE HOUR CONTAINING PRELIMINARY DATA FROM ALBUQUERQUE
      AND OTHER STATIONS.  A FINAL VERSION WITH ADDITIONAL DATA IS
      ISSUED ABOUT 10 MINUTES AFTER THE HOUR.

NMZ501-503-504-510>518-192200-
NORTHWEST PLATEAU/NORTHCENTRAL MOUNTAINS

CITY           SKY/WX    TMP DP  RH WIND       PRES   REMARKS
FARMINGTON     FAIR      71  12  10 SE23G36   29.84F
LOS ALAMOS     FAIR      62  12  14 SE22G33   30.15F
SANTA FE       FAIR      64  16  15 SE33G47   30.11F
TAOS           FAIR      65  14  14 SW15G26   30.14F
ANGEL FIRE     PTSUNNY   51  14  22 S29G36    30.22F

$$
NMZ402-403-502-505>509-192200-
WESTCENTRAL MOUNTAINS/SOUTHWEST MOUNTAINS

CITY           SKY/WX    TMP DP  RH WIND       PRES   REMARKS
GALLUP         FAIR      74   7   7 S30G41    29.89F
GRANTS         FAIR      72  10   9 SE22G29   29.99F
SILVER CITY    FAIR      75  14   9 SE21G28   30.06F

$$
NMZ407-409-411-412-192200-
SOUTHERN DESERTS

CITY           SKY/WX    TMP DP  RH WIND       PRES   REMARKS
DEMING         FAIR      83  19   9 SE17G24   30.00F
LAS CRUCES     FAIR      81  25  12 S16G29    30.05F
ALAMOGORDO     FAIR      75  32  20 S30G36    30.03F
T OR C         FAIR      78  12   8 S22G31    30.03F

$$
NMZ519>523-192200-
CENTRAL VALLEYS/CENTRAL HIGHLANDS

CITY           SKY/WX    TMP DP  RH WIND       PRES   REMARKS
ALBUQUERQUE    PTSUNNY   74  14  10 SE22G31   30.02F
DOUBLE EAGLE   PTSUNNY   73  14  10 SE23G33   30.05F
MORIARTY ARPT  FAIR      69  19  15 SE26G33   30.16F
CLINES CORNERS FAIR      61  22  22 SE24G41   30.21F
BELEN          FAIR      75  13   9 S29G38    30.03F
SOCORRO        FAIR      76  17  10 SE26G33   30.02F

$$
NMZ524>526-539-540-192200-
SOUTHCENTRAL MOUNTAINS

CITY           SKY/WX    TMP DP  RH WIND       PRES   REMARKS
RUIDOSO        FAIR      63  23  22 SE26G32   30.24F

$$
NMZ527>531-192200-
NORTHEAST HIGHLANDS/NORTHEAST PLAINS

CITY           SKY/WX    TMP DP  RH WIND       PRES   REMARKS
LAS VEGAS      FAIR      58  19  22 S25G36    30.24F
RATON          FAIR      62  11  13 S31G40    30.19F
CLAYTON        FAIR      65  17  15 S25G43    30.21F

$$
NMZ532>537-192200-
EASTCENTRAL PLAINS

CITY           SKY/WX    TMP DP  RH WIND       PRES   REMARKS
SANTA ROSA     FAIR      66  20  17 S20G29    30.18F
TUCUMCARI      FAIR      70  23  17 S21G30    30.18F
CANNON AFB     NOT AVBL
CLOVIS AIRPORT FAIR      69  23  17 SE22G29   30.25F

$$
NMZ028-029-538-192200-
SOUTHEAST PLAINS

CITY           SKY/WX    TMP DP  RH WIND       PRES   REMARKS
ROSWELL        FAIR      75  23  14 SE22G35   30.17F
ARTESIA        FAIR      73  25  16 SE23G31   30.17F
CARLSBAD       FAIR      75  27  17 SE21G33   30.14F
HOBBS          SUNNY     72  19  14 SE25G33   30.20F


$$




USA.gov is the U.S. government's official web portal to all federal, state and local government web resources and services.